Volver al catálogo

STARLINK-36307

ActivoComunicacionesSSO
NORAD 68306·PAYLOAD·🇺🇸 United States

Lanzado Mar 20, 2026 desde Vandenberg Space Force Base

Loading…

Próximos Pases (próximas 24 horas)

TLE

ActualizadoSource: CelesTrak SupGP

Época: Sep 15, 2026, 02:54 UTC

1 68306C 26057N   26258.12131944  .00007981  00000+0  24793-3 0  2581
2 68306  97.2858  23.5847 0001293  93.8004  78.8555 15.33412630    19

Sigue STARLINK-36307 en tiempo real con AllMySat

Download on the App Store